Location: Ammerl�gen
(47.2167°N, 9.6000°E)
Time: 03:12:49
(UTC+00:00)

Cosmos 1844 Rocket - Pass Details

Date: 21 April 2021
Orbit: 825 x 844 km, 71.0° (Epoch: 16 May)

Event Time Altitude Azimuth Distance (km) Brightness Sun altitude
Exits shadow 22:48:12 34° 65° (ENE) 1,330 3.8 -30.2°
Drops below altitude 10° 22:51:44 10° 38° (NE) 2,437 5.6 -30.3°
Sets 22:54:16 0° 32° (NNE) 3,376 6.5 -30.3°
